星链-34599 (STARLINK-34599)

导读

STARLINK-34599是美国太空探索技术公司(SpaceX)星链(Starlink)星座的一员,于2025年7月26日发射升空。星链星座旨在为全球提供高速互联网接入服务,该卫星入轨后,将助力扩充星链星座的网络覆盖范围,提升全球尤其是偏远地区的互联网连接能力,进一步推进星座组网建设进程。

基本信息
目录编号:
64919
目录名称:
STARLINK-34599
国际标识:
2025-157R
轨道中心:
EARTH
卫星名称:
星链-34599
卫星全名:
星链-34599 (STARLINK-34599)
卫星状态:
在轨 (已飞行406 天)
发射日期:
2025-07-26 UTC
国别 :
美国 (US)
星等 :
--
轨道信息
数据来源 国际轨道数据 AOE轨道数据
星历时间 2026-09-05T14:57:54+0800
6小时前
查看轨道信息
2026-09-01T22:00:00+0800
3天前
查看轨道信息
半长轴 6840.845km 6840.939km
偏心率 0.0001285 0.0001168
轨道倾角 53.157° 53.158°
近地点辐角 87.838° 79.945°
升交点赤经 229.146° 246.474°
平近点角 272.277° 312.591°
近地点 461.828km 462.002km
远地点 463.588km 463.602km
周期 93.848分钟 93.850分钟
每日圈数 15.343987 15.34367
详细信息
固有亮度:
5
最大亮度:
2.5
卫星平台:
Starlink V1.0
覆盖范围:
全球
运营商:
太空探索技术公司
运营商所在国:
美国
制造商(研发单位):
太空探索技术公司
制造商所在国:
美国
使用方式:
暂无
卫星简介
Starlink 计划是 SpaceX 推出的全球卫星互联网项目,通过发射低轨道卫星,为全球尤其是偏远地区提供高速、低延迟的互联网服务。自 2019 年起,Starlink 已部署数千颗卫星,旨在缩小全球数字鸿沟,推动互联网普及。该项目还为军事、航空等行业提供通信支持,带来广泛经济效益。
2D轨道图
3D轨道图
轨道高度分析图
轨道倾角分析图
轨道综合分析图
查看轨道综合分析图
交会数据列表
事件ID 空间交会对象 最接近时刻(TCA) 交会距离 交会风险概率(CRP) 交会风险指数(CRI) 操作
CDM_260907-153703-382106-491921
2026-09-07T
15:37:58+0000
1.461 km
极远距离
4.803813E-6 低风险 0.49
CDM_260907-104705-363306-491921
2026-09-07T
10:47:40+0000
2.831 km
极远距离
1.093541E-6 低风险 0.36